DW2258 Weather Reports


time (UTC)temp
C
wind
direction
speed
KPH
gust
KPH
rain 1hr
cm
rain 24hr
cm
rain mn
cm
humidity
%
barometer
mb
20260507174632 8 210 8.0 20.9 0.00 0.66 0.18 88 1003.7
20260507173134 8 188 16.1 24.1 0.00 0.66 0.18 86 1003.8
20260507171657 8 171 11.3 25.7 0.00 0.66 0.18 87 1003.7
20260507170134 9 245 9.7 17.7 0.00 0.66 0.18 87 1003.9
20260507164640 8 214 12.9 22.5 0.00 0.66 0.18 87 1004.1
20260507163139 9 196 9.7 17.7 0.00 0.66 0.18 87 1004.1
20260507161637 10 243 6.4 16.1 0.00 0.66 0.18 85 1004.1
20260507160139 9 220 9.7 17.7 0.00 0.66 0.18 85 1004.3
20260507154638 10 191 9.7 16.1 0.00 0.66 0.18 83 1004.6
20260507153141 10 201 8.0 12.9 0.00 0.66 0.18 81 1004.8
20260507151640 11 280 11.3 14.5 0.00 0.66 0.18 80 1005.0
20260507150140 11 285 6.4 14.5 0.00 0.66 0.18 83 1004.7
20260507144639 10 309 9.7 17.7 0.00 0.66 0.18 84 1004.7
20260507143142 10 319 11.3 16.1 0.00 0.66 0.18 84 1004.8
20260507141643 10 307 8.0 17.7 0.00 0.66 0.18 88 1005.2
20260507140142 9 328 11.3 19.3 0.00 0.66 0.18 90 1005.4
20260507134642 8 324 8.0 16.1 0.00 0.66 0.18 92 1005.3
20260507133147 8 270 3.2 14.5 0.00 0.66 0.18 92 1006.2
20260507131646 8 324 4.8 12.9 0.00 0.66 0.18 93 1005.3
20260507130206 8 323 3.2 12.9 0.00 0.66 0.18 93 1005.3
20260507124707 8 298 6.4 14.5 0.00 0.66 0.18 94 1005.8
20260507123147 7 12 6.4 14.5 0.00 0.66 0.18 94 1005.3
20260507121629 7 337 9.7 20.9 0.00 0.66 0.18 95 1005.1
20260507120130 7 313 8.0 17.7 0.00 0.66 0.18 95 1005.3
20260507114631 7 287 9.7 19.3 0.00 0.66 0.18 95 1005.7
20260507113152 7 322 8.0 16.1 0.00 0.66 0.18 95 1005.5
20260507111631 7 318 8.0 14.5 0.00 0.66 0.18 95 1005.7
20260507110133 7 259 9.7 14.5 0.00 0.66 0.18 96 1005.9
20260507104633 7 324 11.3 19.3 0.00 0.66 0.18 96 1005.4
20260507103134 7 330 12.9 25.7 0.00 0.66 0.18 96 1005.0
20260507101655 7 277 16.1 25.7 0.00 0.66 0.18 96 1004.3
20260507100139 8 315 14.5 24.1 0.00 0.66 0.18 96 1004.4
20260507094640 8 313 8.0 24.1 0.00 0.66 0.18 96 1004.4
20260507093203 8 317 16.1 25.7 0.00 0.66 0.18 96 1004.2
20260507091644 8 308 16.1 25.7 0.00 0.66 0.18 96 1004.5
20260507090143 8 305 14.5 20.9 0.00 0.66 0.18 96 1004.1
20260507084646 8 322 14.5 24.1 0.03 0.66 0.18 96 1003.7
20260507083147 8 303 16.1 27.4 0.03 0.66 0.18 96 1003.7
20260507081628 8 295 14.5 25.7 0.03 0.66 0.18 96 1003.7
20260507080147 8 330 14.5 22.5 0.03 0.66 0.18 96 1003.7
20260507074630 8 305 12.9 22.5 0.00 0.64 0.15 96 1003.5
20260507073130 8 285 12.9 17.7 0.10 0.64 0.15 96 1003.4
20260507071631 8 250 11.3 16.1 0.10 0.64 0.15 96 1003.2
20260507070130 7 245 8.0 14.5 0.10 0.64 0.15 96 1003.2
20260507064634 7 233 9.7 17.7 0.15 0.64 0.15 96 1003.2
20260507063133 7 218 12.9 20.9 0.05 0.53 0.05 96 1003.6
20260507061634 7 225 16.1 37.0 0.05 0.53 0.05 96 1003.4
20260507060133 7 226 24.1 38.6 0.05 0.53 0.05 96 1003.6
20260507054653 7 258 25.7 37.0 0.00 0.48 0.00 96 1003.6
20260507053136 7 225 22.5 37.0 0.00 0.48 0.00 96 1003.6
20260507051635 7 240 22.5 30.6 0.00 0.48 0.00 95 1003.8
20260507050135 7 214 19.3 32.2 0.00 0.48 0.00 95 1003.9
20260507044635 7 220 22.5 38.6 0.00 0.48 0.48 95 1003.9
20260507043140 7 266 17.7 29.0 0.03 0.48 0.48 95 1004.1
20260507041641 7 244 17.7 41.8 0.03 0.48 0.48 96 1004.1
20260507040142 7 191 19.3 45.1 0.03 0.48 0.48 95 1004.3
20260507034642 8 166 24.1 48.3 0.08 0.48 0.48 95 1004.2
20260507033141 8 179 22.5 37.0 0.10 0.46 0.46 95 1004.5
20260507031647 8 204 22.5 40.2 0.15 0.46 0.46 95 1004.6
20260507030129 8 191 24.1 38.6 0.25 0.46 0.46 95 1004.8
20260507024630 8 191 24.1 38.6 0.25 0.41 0.41 95 1005.3
20260507023147 8 164 32.2 45.1 0.25 0.36 0.36 95 1005.5
20260507021631 8 170 37.0 51.5 0.25 0.30 0.30 94 1005.8
20260507020154 8 189 29.0 46.7 0.20 0.20 0.20 94 1006.2
20260507014633 8 179 24.1 41.8 0.13 0.13 0.13 94 1006.7
20260507013133 8 188 27.4 38.6 0.10 0.10 0.10 94 1006.9
20260507011653 8 166 24.1 38.6 0.05 0.05 0.05 94 1007.0
20260507010135 8 187 22.5 35.4 0.00 0.00 0.00 94 1007.5
20260507004636 8 197 16.1 29.0 0.00 0.00 0.00 93 1007.8
20260507003136 8 156 17.7 30.6 0.00 0.00 0.00 93 1008.0
20260507001634 8 192 20.9 35.4 0.00 0.00 0.00 93 1008.1
20260507000139 8 198 22.5 37.0 0.00 0.00 0.00 93 1008.1
20260506234639 8 165 20.9 35.4 0.00 0.00 0.00 93 1008.0
20260506233140 8 183 22.5 35.4 0.00 0.00 0.00 93 1008.0
20260506231639 8 224 20.9 33.8 0.00 0.00 0.00 93 1008.4
20260506230143 8 179 19.3 30.6 0.00 0.00 0.00 93 1008.1
20260506224704 8 204 17.7 30.6 0.00 0.00 0.00 93 1008.6
20260506223204 8 203 9.7 29.0 0.00 0.00 0.00 93 1009.0
20260506221643 8 201 14.5 22.5 0.00 0.00 0.00 93 1009.3
20260506220142 7 244 8.0 16.1 0.00 0.00 0.00 93 1009.7
20260506214648 8 260 8.0 24.1 0.00 0.00 0.00 93 1009.6
20260506213148 8 254 12.9 27.4 0.00 0.00 0.00 92 1009.8
20260506211628 8 254 16.1 29.0 0.00 0.00 0.00 92 1009.9
20260506210148 8 223 20.9 41.8 0.00 0.00 0.00 92 1009.2
20260506204631 8 194 27.4 43.5 0.00 0.00 0.00 92 1008.8
20260506203153 9 193 22.5 43.5 0.00 0.00 0.00 92 1008.7
20260506201630 8 201 22.5 35.4 0.00 0.00 0.00 92 1008.7
20260506200131 9 201 16.1 30.6 0.00 0.00 0.00 91 1009.0
20260506194630 8 247 11.3 17.7 0.00 0.00 0.00 91 1009.6
20260506193135 9 267 11.3 24.1 0.00 0.00 0.00 91 1009.7
20260506191636 10 231 12.9 35.4 0.00 0.00 0.00 91 1009.8
20260506190136 9 228 14.5 32.2 0.00 0.00 0.00 92 1009.9
20260506184636 9 262 11.3 20.9 0.00 0.00 0.00 91 1010.0
20260506183141 9 243 14.5 29.0 0.00 0.00 0.00 92 1010.3
20260506181643 9 226 9.7 24.1 0.00 0.00 0.00 92 1010.4
20260506180143 9 241 11.3 19.3 0.00 0.00 0.00 92 1010.6